Weather History for Fort Worth, TX

Change the Weather History Date:

Wednesday, April 4, 2012

  Actual Average Record
Temperature  
Mean Temperature 64 °F -  
Max Temperature 73 °F 70 °F 84 °F (2001)
Min Temperature 54 °F 50 °F 39 °F (1998)
Degree Days  
Heating Degree Days 2    
Growing Degree Days 14 (Base 50)    
Moisture  
Dew Point 57 °F    
Average Humidity 86    
Maximum Humidity 100    
Minimum Humidity 51    
Precipitation  
Precipitation 0.00 in - - ()
Sea Level Pressure  
Sea Level Pressure 29.83 in    
Wind  
Wind Speed 7 mph (NW)    
Max Wind Speed 13 mph    
Max Gust Speed 18 mph    
Visibility 6 miles    
Events Fog    
Averages and records for this station are not official NWS values.
T = Trace of Precipitation, MM = Missing Value Source: NWS Daily Summary

Daily Weather History Graph

Daily Weather History Graph

Search for Another Location

Airport:

Trip Planner

Search our weather history database for the weather conditions in past years. The results will help you decide how hot, cold, wet, or windy it might be!

Date:

Astronomy

Apr. 04, 2012 Rise Set
Actual Time 7:12 AM CDT 7:52 PM CDT
Civil Twilight 6:47 AM CDT 8:17 PM CDT
Nautical Twilight 6:18 AM CDT 8:46 PM CDT
Astronomical Twilight 5:48 AM CDT 9:16 PM CDT
Moon 5:52 PM CDT (4/4) 5:28 AM CDT (4/4)
Length of Visible Light 13h 29m
Length of Day
12h 39m
Waxing Gibbous, 94% of the Moon is Illuminated
Apr 4
Waxing Gibbous
Apr 6
Full
Apr 13
Last Quarter
Apr 21
New
Apr 29
First Quarter

Hourly Weather History & Observations

Time (CDT) Temp. Dew Point Humidity Pressure Visibility Wind Dir Wind Speed Gust Speed Precip Events Conditions
12:29 AM 57.2 °F 57.2 °F 100% 29.84 in 1.5 mi West 5.8 mph - N/A   Mist
12:34 AM 59.0 °F 59.0 °F 100% 29.84 in 0.2 mi West 4.6 mph - N/A Fog Fog
12:44 AM 60.8 °F 60.8 °F 100% 29.84 in 0.5 mi West 4.6 mph - N/A Fog Fog
12:53 AM 60.1 °F 60.1 °F 100% 29.82 in 0.5 mi West 5.8 mph - N/A Fog Fog
1:01 AM 60.8 °F 60.8 °F 100% 29.83 in 0.2 mi West 5.8 mph - N/A Fog Fog
1:24 AM 60.8 °F 60.8 °F 100% 29.84 in 0.2 mi WNW 4.6 mph - N/A Fog Fog
1:53 AM 61.0 °F 61.0 °F 100% 29.82 in 0.2 mi West 3.5 mph - N/A Fog Fog
2:03 AM 60.8 °F 60.8 °F 100% 29.83 in 0.2 mi Calm Calm - N/A Fog Fog
2:53 AM 61.0 °F 61.0 °F 100% 29.81 in 0.2 mi NW 9.2 mph - N/A Fog Fog
3:09 AM 60.8 °F 60.8 °F 100% 29.83 in 0.8 mi NNW 11.5 mph - N/A   Mist
3:18 AM 60.8 °F 60.8 °F 100% 29.83 in 1.8 mi NNW 12.7 mph - N/A   Overcast
3:25 AM 60.8 °F 60.8 °F 100% 29.84 in 3.0 mi NW 10.4 mph - N/A   Overcast
3:53 AM 59.0 °F 59.0 °F 100% 29.82 in 7.0 mi NW 9.2 mph - N/A   Overcast
4:04 AM 57.2 °F 57.2 °F 100% 29.82 in 10.0 mi WNW 8.1 mph - N/A   Mostly Cloudy
4:14 AM 57.2 °F 57.2 °F 100% 29.82 in 10.0 mi WNW 4.6 mph - N/A   Scattered Clouds
4:53 AM 57.0 °F 57.0 °F 100% 29.81 in 8.0 mi Calm Calm - N/A   Clear
5:53 AM 54.0 °F 54.0 °F 100% 29.83 in 10.0 mi NW 3.5 mph - N/A   Clear
6:39 AM 55.4 °F 55.4 °F 100% 29.87 in 8.0 mi NW 5.8 mph - N/A   Mostly Cloudy
6:53 AM 57.0 °F 57.0 °F 100% 29.86 in 8.0 mi NW 6.9 mph - N/A   Overcast
7:53 AM 57.9 °F 57.0 °F 97% 29.88 in 6.0 mi WNW 10.4 mph - N/A   Overcast
8:53 AM 57.0 °F 55.0 °F 93% 29.89 in 10.0 mi WNW 9.2 mph - N/A   Mostly Cloudy
9:53 AM 57.9 °F 55.0 °F 90% 29.91 in 10.0 mi WNW 9.2 mph - N/A   Overcast
10:53 AM 60.1 °F 55.0 °F 83% 29.91 in 10.0 mi NW 12.7 mph - N/A   Mostly Cloudy
11:41 AM 62.6 °F 55.4 °F 77% 29.93 in 10.0 mi WNW 9.2 mph 18.4 mph N/A   Clear
11:53 AM 63.0 °F 55.0 °F 75% 29.91 in 10.0 mi NW 10.4 mph - N/A   Clear
12:53 PM 66.0 °F 55.9 °F 70% 29.89 in 10.0 mi WNW 10.4 mph - N/A   Clear
1:53 PM 68.0 °F 55.0 °F 63% 29.86 in 10.0 mi Variable 4.6 mph - N/A   Clear
2:53 PM 71.1 °F 57.0 °F 61% 29.82 in 8.0 mi Variable 4.6 mph - N/A   Clear
3:53 PM 73.0 °F 55.9 °F 55% 29.78 in 10.0 mi WNW 6.9 mph - N/A   Clear
4:53 PM 73.0 °F 54.0 °F 51% 29.76 in 8.0 mi WNW 6.9 mph - N/A   Clear
5:53 PM 72.0 °F 53.1 °F 51% 29.75 in 10.0 mi NW 9.2 mph - N/A   Clear
6:53 PM 69.8 °F 51.8 °F 53% 29.77 in 10.0 mi NNW 6.9 mph - N/A   Clear
7:53 PM 66.0 °F 52.0 °F 60% 29.76 in 10.0 mi NNE 8.1 mph - N/A   Partly Cloudy
8:53 PM 63.0 °F 51.1 °F 65% 29.77 in 10.0 mi NNE 10.4 mph - N/A   Clear
9:53 PM 60.1 °F 50.0 °F 69% 29.81 in 10.0 mi NE 6.9 mph - N/A   Clear
10:53 PM 59.0 °F 50.0 °F 72% 29.83 in 10.0 mi NE 4.6 mph - N/A   Clear
11:53 PM 57.9 °F 52.0 °F 81% 29.82 in 10.0 mi NNW 3.5 mph - 0.00 in   Clear